Wetbulb
56.27 56.27 54.72 54.27 54.49 53.90 53.16 51.85 50.46 50.31 50.47 50.63 50.61 50.52 50.46 50.05 49.50 49.61 50.62 50.01 48.46 48.04 47.64 47.01 46.79 47.50 46.35 46.54 46.91 47.71 49.07 50.64 48.59 52.03 55.02 56.37 56.85 56.60 61.27 63.56 63.73 64.22 63.58
55.79 55.68 55.40 54.54 54.31 53.12 52.21 51.00 50.51 49.95 50.48 50.61 50.79 50.42 50.29 49.69 49.74 50.35 49.25 48.67 48.02 46.69 46.26 45.99 45.57 46.14 46.16 46.58 46.71 47.12 47.79 49.38 49.28 48.53 52.28 53.61 54.81 56.99 59.36 61.09 62.52 63.20 63.31
56.09 55.44 54.52 53.92 53.20 52.28 51.57 50.78 50.61 49.93 49.90 50.27 50.17 49.63 48.98 49.27 48.67 48.83 48.57 47.74 46.82 46.25 45.80 45.27 45.02 45.42 45.36 45.95 47.03 47.21 48.17 48.72 49.23 48.98 49.88 53.09 54.73 57.91 57.22 59.77 60.08 61.45 62.69
56.29 55.40 54.29 53.87 53.11 52.46 51.24 50.70 50.25 49.94 49.10 48.90 48.98 48.57 48.34 48.55 47.86 47.44 47.05 45.82 45.55 45.34 45.47 45.29 45.08 44.93 45.57 46.92 47.60 48.49 48.71 47.89 48.77 48.90 50.17 51.45 52.78 54.75 55.91 53.50 53.69 58.17 60.05
56.16 55.46 54.95 54.52 53.04 51.78 50.80 50.35 49.58 49.37 48.84 48.23 47.23 46.77 46.71 47.78 47.65 45.72 45.20 44.59 44.23 44.00 44.47 44.45 45.25 47.02 49.20 48.10 48.40 48.81 48.94 48.17 48.05 48.70 49.04 50.44 51.35 51.94 50.02 50.92 52.43 53.39 60.20
56.06 55.29 55.04 52.89 51.96 50.79 49.67 48.36 48.37 47.54 46.56 46.44 45.50 45.22 44.95 46.66 45.96 46.36 44.93 44.18 43.71 43.18 42.88 43.64 44.30 46.59 46.43 45.11 45.88 47.35 49.18 49.35 48.38 47.96 48.85 49.60 50.04 48.19 47.66 47.87 49.31 50.03 51.66
56.32 55.12 53.18 51.89 50.06 48.32 47.69 47.42 46.55 44.97 44.55 43.59 43.62 43.94 43.66 44.28 44.61 44.60 45.32 44.30 43.18 42.80 42.34 42.57 43.64 45.12 44.42 44.09 44.37 44.74 45.33 48.57 48.25 47.68 45.55 44.64 45.02 46.96 46.17 46.10 46.87 47.86 49.26
51.56 50.16 49.74 47.94 46.84 46.90 46.40 45.01 44.36 44.19 43.36 42.96 42.38 42.45 42.21 42.67 43.19 43.14 44.10 44.21 42.77 42.41 42.75 43.21 44.89 44.55 43.86 43.92 43.67 43.57 43.87 45.61 45.44 44.11 44.46 44.00 44.78 45.04 45.59 45.85 46.61 48.77 52.70
47.12 46.84 47.14 46.01 45.14 44.86 43.78 42.85 42.17 42.88 41.32 41.41 41.70 41.38 40.58 41.12 41.42 41.80 42.93 42.86 42.30 43.06 44.82 44.94 45.21 44.47 43.44 42.47 42.66 42.32 42.57 43.12 44.26 43.30 43.17 42.99 42.06 42.25 43.45 44.47 44.65 45.17 47.20
46.48 46.19 45.46 45.13 44.25 43.33 42.69 42.12 41.71 41.63 41.02 40.50 40.55 40.98 40.87 41.20 40.59 40.88 42.16 41.72 41.99 42.53 44.21 44.01 43.98 44.30 42.14 41.54 42.07 41.33 40.73 41.48 41.33 41.88 42.01 42.25 42.42 42.90 42.86 45.28 45.14 44.32 46.06
45.26 44.37 43.99 43.57 42.58 42.36 41.59 41.51 41.24 40.17 39.13 38.79 38.25 39.41 40.14 40.77 41.39 40.43 41.01 42.24 41.77 41.32 41.09 41.17 42.21 41.92 41.06 40.62 40.89 42.05 40.82 41.86 41.30 40.84 40.41 40.63 41.42 42.48 43.21 44.53 45.12 45.62 45.69
42.91 42.10 41.51 41.26 41.78 40.91 39.77 39.00 38.79 37.98 36.80 37.05 37.14 38.24 39.44 40.44 40.49 41.03 40.67 40.70 41.89 40.90 41.02 42.49 42.74 41.16 40.63 40.64 41.05 41.26 40.55 40.97 40.62 39.68 38.79 38.96 39.74 41.06 43.12 44.23 45.46 47.04 48.83
40.26 39.25 39.95 40.19 40.02 39.69 39.25 37.86 37.56 37.68 37.46 37.98 38.08 38.17 38.61 40.45 41.04 40.55 40.34 40.36 41.24 41.30 42.15 42.51 41.41 40.09 40.05 40.36 40.67 40.77 40.97 40.90 39.61 37.78 37.25 37.77 40.03 41.76 43.26 43.89 45.93 47.37 47.77
38.80 38.49 38.13 37.87 37.97 37.53 37.60 37.40 36.82 36.65 36.86 36.95 36.80 37.08 38.24 38.71 39.19 39.78 39.72 39.60 40.10 40.40 40.63 40.68 41.07 40.91 40.65 41.26 41.10 41.13 41.05 40.33 39.27 38.43 38.37 39.01 41.11 41.99 42.88 44.17 43.69 45.68 46.49
37.35 37.10 36.44 36.34 36.14 36.32 37.02 37.11 36.89 37.82 37.02 35.61 36.40 35.75 35.00 35.03 37.11 36.67 36.69 36.45 36.72 36.75 36.76 36.87 37.59 38.43 38.56 39.31 39.68 39.84 40.05 39.80 38.83 39.20 38.82 38.54 38.85 40.38 42.96 45.21 44.47 45.60 45.76
35.97 35.99 36.77 37.09 36.55 36.48 36.15 36.05 37.40 37.16 37.28 36.76 36.17 35.76 35.76 36.14 36.21 36.07 35.98 34.65 34.85 35.20 33.71 33.27 34.11 35.49 36.74 37.95 38.36 38.82 39.19 39.08 39.28 39.19 38.77 38.61 37.96 39.38 42.05 43.92 44.95 44.81 44.69
36.21 36.28 36.06 37.49 37.21 36.36 36.28 35.54 33.98 36.12 37.37 36.92 36.10 36.12 36.30 36.00 35.72 35.30 34.07 33.98 34.58 34.02 32.72 32.92 34.05 35.14 36.55 37.07 37.91 38.41 38.29 39.05 40.17 38.97 38.65 38.60 39.08 40.18 40.37 41.90 44.28 45.17 45.52
36.71 37.49 35.97 35.75 36.14 37.18 35.85 35.69 35.62 34.21 33.32 34.20 36.23 35.94 35.99 36.04 35.52 34.84 34.49 34.34 32.44 33.59 33.35 33.17 33.68 35.75 36.73 37.47 37.77 38.12 38.62 39.41 39.31 39.05 38.56 38.92 39.39 39.67 39.85 41.21 43.53 44.55 45.62
36.84 36.60 35.92 34.74 34.06 35.26 35.91 35.29 35.31 35.30 34.77 34.31 34.77 34.82 34.79 35.40 34.95 34.77 34.52 33.39 32.20 32.09 33.29 34.16 34.62 34.80 35.40 36.45 38.10 38.53 38.98 39.11 39.23 39.55 39.52 39.95 40.36 40.53 40.79 42.35 43.27 38.37 41.35
35.62 35.56 34.93 32.70 32.36 32.48 33.43 34.38 34.20 34.21 33.99 33.81 33.43 33.09 33.71 33.77 32.55 32.22 33.48 33.48 32.75 32.35 32.32 33.07 33.56 34.96 35.10 35.64 36.88 38.24 38.14 38.80 39.22 39.50 39.95 40.48 41.15 41.32 41.01 41.43 42.00 42.55 43.91
34.90 34.68 31.10 33.27 32.18 32.07 31.94 31.71 33.28 33.65 33.32 33.29 33.47 33.87 32.41 32.67 32.29 32.47 32.63 32.74 32.52 32.41 31.90 32.18 32.67 33.95 34.97 35.39 36.17 36.50 38.04 38.26 39.47 39.68 40.26 41.15 41.37 41.10 42.19 42.35 42.73 43.71 44.20
34.55 34.35 33.83 32.68 32.21 31.81 31.23 31.32 31.24 31.18 32.43 32.42 32.85 32.87 32.09 33.30 32.65 32.44 32.33 32.42 33.04 33.27 33.29 32.89 32.92 33.71 34.42 34.14 34.95 36.30 37.50 37.87 39.29 40.21 40.80 41.38 41.35 41.07 41.53 41.40 42.38 43.24 44.09
34.48 33.96 33.32 31.89 31.71 30.54 30.46 30.58 29.86 29.79 30.41 31.55 31.98 32.01 31.73 31.45 31.61 31.88 32.27 32.88 33.25 33.15 33.68 33.63 32.98 32.96 34.17 34.88 35.15 36.14 35.25 38.23 39.25 39.95 40.66 40.19 40.54 40.75 41.15 40.63 41.63 42.16 43.50
33.84 33.51 32.59 31.09 30.52 30.29 29.43 29.64 28.79 28.29 28.83 30.08 30.76 31.07 31.00 30.74 31.17 31.27 31.98 32.81 32.95 32.81 33.02 33.09 33.35 33.32 33.86 34.12 35.31 35.01 36.69 38.40 40.21 40.35 40.14 39.53 39.45 40.21 41.00 41.74 41.70 42.77 43.56
33.09 32.78 32.10 30.67 29.45 28.89 28.86 28.43 27.93 27.62 27.86 28.96 29.37 29.79 29.97 30.41 30.37 30.95 31.80 32.29 32.19 32.15 31.98 32.56 33.10 33.30 33.08 34.30 35.10 35.37 34.75 33.36 36.61 36.66 40.03 39.73 39.49 39.37 40.39 42.36 42.73 42.94 43.15
31.97 31.73 31.07 30.65 29.42 28.90 28.27 27.42 26.96 27.06 26.98 27.38 28.54 28.66 28.87 29.61 29.65 30.55 31.05 31.64 31.48 31.37 31.56 32.45 32.91 33.60 34.08 34.74 35.88 34.45 33.41 33.39 34.50 33.42 38.43 39.09 39.01 39.19 40.47 40.82 41.79 42.07 42.18
MSLP
1014.66 1015.43 1014.95 1015.37 1016.91 1017.53 1018.09 1018.33 1018.42 1019.03 1019.17 1019.39 1019.29 1019.60 1019.97 1020.28 1020.18 1020.01 1020.42 1020.64 1020.74 1020.80 1020.73 1020.63 1020.60 1020.26 1019.85 1019.48 1019.07 1018.79 1018.54 1018.34 1017.44 1016.36 1016.09 1015.29 1014.54 1013.72 1012.76 1012.33 1012.17 1011.88 1011.76
1015.16 1015.85 1016.10 1015.91 1017.16 1017.32 1018.23 1018.54 1018.39 1018.56 1019.02 1019.57 1019.78 1019.96 1020.03 1020.15 1020.50 1020.47 1020.57 1020.58 1020.74 1020.77 1020.83 1020.69 1020.69 1020.35 1020.01 1019.48 1019.04 1018.57 1018.29 1018.07 1017.63 1016.72 1016.06 1015.49 1014.77 1014.07 1013.35 1012.54 1012.12 1011.98 1011.80
1015.22 1015.70 1016.40 1016.17 1017.06 1017.56 1018.09 1018.22 1018.59 1018.77 1019.09 1019.38 1019.71 1019.83 1020.03 1020.24 1020.54 1020.85 1021.02 1020.78 1020.72 1020.79 1020.67 1020.42 1020.53 1020.52 1020.12 1019.75 1019.14 1018.30 1017.87 1017.57 1017.37 1016.84 1016.22 1015.86 1014.91 1014.16 1013.57 1012.96 1012.28 1011.81 1011.76
1013.22 1015.13 1014.88 1016.29 1016.82 1017.56 1017.86 1018.02 1018.30 1018.60 1018.95 1019.36 1019.84 1019.94 1019.92 1020.04 1020.28 1020.68 1021.01 1020.99 1020.91 1020.77 1020.77 1020.53 1020.33 1020.07 1019.83 1019.65 1018.98 1018.53 1017.73 1017.22 1016.95 1016.54 1016.16 1015.54 1015.12 1014.51 1014.10 1013.75 1012.91 1012.46 1012.10
1013.44 1014.42 1015.49 1016.34 1017.03 1017.73 1017.82 1017.98 1018.42 1018.86 1019.18 1019.65 1020.18 1020.27 1020.19 1020.12 1020.35 1020.47 1020.62 1020.88 1020.77 1020.62 1020.66 1020.34 1019.95 1019.67 1019.42 1019.24 1019.07 1018.18 1018.06 1017.30 1016.78 1016.27 1016.09 1015.66 1015.15 1014.89 1014.92 1014.77 1014.11 1013.29 1012.10
1013.53 1014.08 1014.72 1015.83 1016.92 1017.69 1017.77 1018.34 1018.70 1018.95 1019.23 1019.74 1020.17 1020.33 1020.57 1020.07 1020.08 1020.45 1020.78 1020.88 1020.80 1020.72 1020.66 1020.53 1020.01 1019.34 1018.99 1018.74 1018.70 1018.22 1018.18 1017.39 1016.72 1016.30 1016.00 1015.81 1015.51 1015.65 1015.53 1015.33 1014.73 1014.10 1013.32
1013.62 1014.53 1015.34 1015.97 1017.04 1017.41 1017.91 1018.53 1018.95 1019.21 1019.38 1019.82 1020.23 1020.62 1020.53 1020.07 1019.95 1020.30 1020.37 1020.47 1020.48 1020.44 1020.38 1020.42 1020.18 1020.07 1019.27 1018.86 1018.41 1018.09 1017.86 1017.68 1017.19 1016.66 1016.60 1016.59 1016.35 1016.18 1016.08 1015.52 1015.24 1014.80 1014.12
1014.51 1015.16 1015.92 1016.64 1017.70 1018.54 1018.83 1019.34 1019.62 1019.84 1020.04 1019.87 1020.35 1020.92 1020.49 1020.45 1019.78 1019.84 1019.92 1019.89 1020.17 1020.03 1019.63 1019.56 1019.36 1019.08 1019.56 1019.12 1018.70 1018.49 1017.97 1017.58 1017.42 1017.15 1016.95 1016.96 1016.87 1016.63 1016.32 1016.02 1015.47 1014.78 1013.80
1015.89 1016.83 1017.75 1017.41 1018.30 1019.66 1019.59 1020.25 1020.01 1019.69 1020.37 1020.73 1020.67 1020.21 1020.09 1020.11 1019.66 1019.36 1019.54 1019.54 1019.74 1019.58 1019.21 1019.22 1018.95 1018.90 1019.36 1018.78 1018.84 1018.79 1018.18 1017.53 1017.17 1017.07 1016.82 1016.74 1016.68 1016.48 1016.13 1015.87 1015.37 1014.87 1013.88
1017.45 1017.84 1018.84 1018.21 1019.44 1019.99 1020.22 1020.34 1020.94 1020.29 1020.30 1020.99 1020.47 1020.28 1019.86 1019.54 1019.12 1019.00 1019.00 1019.12 1019.07 1019.07 1018.64 1018.30 1018.41 1018.82 1019.08 1018.31 1018.41 1018.29 1018.10 1017.51 1017.17 1016.54 1016.31 1016.25 1016.22 1015.91 1015.68 1015.47 1015.26 1014.80 1014.32
1018.34 1019.63 1018.84 1020.42 1019.58 1020.98 1020.43 1020.33 1020.78 1020.80 1020.91 1020.54 1020.28 1020.18 1019.81 1019.18 1018.85 1018.65 1018.71 1018.72 1018.73 1018.63 1018.16 1018.09 1017.63 1018.21 1018.35 1018.22 1018.20 1018.13 1017.74 1017.41 1017.06 1016.68 1016.34 1016.16 1015.88 1015.49 1015.00 1014.68 1014.55 1014.52 1013.95
1019.33 1019.93 1020.47 1021.10 1020.34 1020.84 1021.99 1020.58 1020.93 1020.71 1020.94 1020.91 1020.78 1020.18 1019.60 1018.91 1018.97 1018.68 1018.68 1018.18 1018.35 1018.12 1018.03 1017.94 1017.51 1017.59 1017.72 1017.74 1017.70 1017.56 1017.35 1017.10 1016.74 1016.31 1016.07 1015.71 1015.44 1015.01 1014.45 1014.18 1013.90 1013.82 1013.60
1019.53 1019.97 1020.57 1020.45 1021.30 1021.27 1021.65 1021.34 1021.66 1021.34 1021.17 1020.84 1020.59 1020.07 1019.74 1019.08 1018.89 1018.69 1018.22 1018.29 1018.30 1018.16 1017.82 1017.38 1017.13 1017.24 1017.15 1017.13 1017.00 1016.79 1016.55 1016.45 1016.09 1015.72 1015.52 1015.36 1015.10 1014.69 1014.16 1013.66 1013.18 1012.99 1012.71
1021.77 1021.29 1021.05 1021.56 1021.36 1022.44 1021.61 1022.31 1021.89 1021.68 1021.30 1020.55 1020.09 1019.73 1019.64 1019.13 1018.72 1018.64 1018.67 1018.67 1018.41 1018.14 1017.44 1017.10 1016.98 1016.87 1016.65 1016.51 1016.29 1016.03 1015.79 1015.54 1015.26 1014.97 1014.89 1014.76 1014.60 1014.06 1013.53 1013.09 1012.76 1012.46 1012.06
1022.11 1022.33 1021.80 1021.56 1022.38 1022.07 1021.39 1022.11 1021.46 1021.45 1021.17 1020.62 1020.33 1020.23 1019.93 1019.10 1019.23 1019.78 1019.38 1019.20 1018.46 1017.97 1017.51 1016.97 1016.51 1016.07 1015.79 1015.61 1015.36 1015.25 1015.08 1014.79 1014.58 1014.37 1014.28 1014.20 1014.00 1013.54 1012.84 1012.49 1012.43 1012.16 1011.72
1021.93 1022.68 1022.27 1021.97 1022.18 1022.03 1022.09 1021.79 1021.38 1021.27 1021.07 1020.82 1020.46 1020.12 1019.91 1019.70 1019.50 1019.81 1019.42 1018.41 1018.08 1017.59 1016.96 1016.44 1015.85 1015.52 1015.23 1014.97 1014.60 1014.45 1014.34 1014.14 1013.94 1013.89 1013.78 1013.61 1013.50 1013.15 1012.55 1012.14 1012.04 1011.89 1011.50
1022.89 1023.03 1022.61 1022.47 1022.36 1022.10 1021.67 1021.41 1021.17 1020.92 1020.68 1020.39 1020.24 1020.44 1020.35 1019.92 1019.67 1018.77 1018.29 1017.91 1017.42 1016.86 1016.35 1015.73 1015.42 1015.15 1014.83 1014.57 1014.29 1014.02 1013.71 1013.50 1013.42 1013.36 1013.32 1013.20 1013.06 1012.70 1012.42 1011.98 1011.65 1011.48 1011.15
1023.74 1023.84 1023.40 1022.95 1022.87 1022.61 1022.01 1021.57 1021.15 1020.63 1020.36 1020.29 1020.24 1020.31 1020.27 1019.87 1018.27 1017.76 1017.71 1017.33 1016.67 1016.21 1015.75 1015.41 1015.17 1014.83 1014.37 1014.07 1013.89 1013.54 1013.28 1013.09 1012.97 1012.89 1012.83 1012.70 1012.55 1012.31 1012.06 1011.71 1011.40 1011.18 1010.92
1023.97 1023.69 1023.68 1023.44 1023.01 1022.58 1022.02 1021.54 1021.25 1020.83 1020.71 1020.24 1019.71 1019.70 1019.09 1019.24 1017.89 1017.37 1017.12 1016.85 1016.22 1015.57 1015.28 1015.12 1014.91 1014.53 1014.22 1013.89 1013.36 1013.16 1012.91 1012.69 1012.50 1012.35 1012.25 1012.15 1011.99 1011.87 1011.66 1011.43 1011.24 1011.15 1010.99
1024.43 1024.38 1023.91 1023.42 1022.91 1022.63 1021.96 1021.75 1021.48 1021.13 1020.41 1019.84 1019.86 1019.59 1018.92 1018.30 1017.43 1016.84 1016.55 1016.19 1015.65 1015.35 1015.16 1014.78 1014.43 1014.09 1013.77 1013.54 1013.19 1012.74 1012.51 1012.18 1012.02 1011.88 1011.80 1011.67 1011.53 1011.46 1011.30 1011.13 1011.02 1010.99 1010.88
1024.70 1024.12 1023.67 1023.27 1023.12 1022.97 1022.44 1022.17 1021.89 1021.12 1020.50 1020.34 1019.95 1019.28 1018.62 1017.78 1016.96 1016.41 1015.96 1015.53 1015.33 1015.15 1014.80 1014.42 1013.97 1013.72 1013.36 1013.05 1012.79 1012.59 1012.04 1011.85 1011.54 1011.51 1011.38 1011.21 1011.15 1011.09 1010.94 1010.87 1010.82 1010.84 1010.88
1024.43 1023.91 1023.53 1023.74 1023.74 1023.49 1023.26 1022.80 1022.25 1021.55 1020.92 1020.21 1019.42 1018.60 1017.77 1017.12 1016.53 1015.99 1015.58 1015.32 1015.06 1014.76 1014.36 1014.02 1013.65 1013.29 1012.94 1012.75 1012.49 1012.14 1011.61 1011.42 1011.18 1010.94 1010.86 1010.75 1010.81 1010.92 1010.71 1010.66 1010.65 1010.66 1010.71
1024.82 1024.69 1024.61 1024.48 1024.19 1023.79 1023.25 1022.63 1021.97 1021.39 1020.68 1019.90 1018.98 1018.04 1017.35 1016.73 1016.25 1015.78 1015.35 1015.01 1014.68 1014.27 1013.94 1013.60 1013.16 1012.72 1012.39 1012.15 1011.95 1011.64 1011.48 1010.87 1010.73 1010.68 1010.47 1010.61 1010.58 1010.59 1010.60 1010.47 1010.39 1010.46 1010.49
1024.95 1024.78 1024.57 1024.26 1023.90 1023.42 1022.92 1022.37 1021.82 1021.15 1020.42 1019.45 1018.64 1017.89 1017.18 1016.65 1016.12 1015.59 1015.12 1014.68 1014.22 1013.82 1013.45 1013.09 1012.64 1012.20 1011.79 1011.48 1011.27 1011.05 1010.74 1010.52 1010.24 1010.18 1010.34 1010.48 1010.52 1010.33 1010.27 1010.12 1010.16 1010.14 1010.21
1025.10 1024.84 1024.56 1024.24 1023.83 1023.36 1022.78 1022.17 1021.53 1020.81 1020.09 1019.34 1018.48 1017.78 1017.22 1016.56 1015.92 1015.34 1014.85 1014.32 1013.82 1013.33 1012.83 1012.41 1011.94 1011.44 1011.08 1010.72 1010.42 1010.22 1010.13 1010.29 1010.12 1009.97 1010.10 1010.21 1010.18 1010.16 1009.92 1009.81 1009.86 1009.90 1010.01
1025.29 1024.96 1024.65 1024.25 1023.79 1023.31 1022.82 1022.22 1021.56 1020.85 1020.08 1019.30 1018.51 1017.82 1017.13 1016.41 1015.78 1015.10 1014.44 1013.86 1013.31 1012.77 1012.22 1011.66 1011.11 1010.64 1010.21 1009.79 1009.37 1009.30 1009.42 1009.60 1009.72 1009.71 1009.83 1009.91 1009.90 1009.92 1009.75 1009.69 1009.65 1009.74 1009.87
Wind_Speed
7 6 12 12 9 7 8 8 7 5 6 5 6 6 5 4 3 4 4 4 5 4 4 5 5 5 5 5 4 3 4 3 5 4 4 8 7 12 11 6 4 2 3
7 7 6 10 8 9 8 7 7 8 5 5 5 5 5 5 4 4 4 3 3 4 4 5 6 6 7 6 4 5 4 5 4 10 6 6 6 10 11 10 3 2 2
6 8 8 8 9 9 10 8 6 7 6 6 5 5 5 4 4 3 2 2 3 3 3 3 6 7 7 6 7 6 4 4 5 4 6 3 3 5 8 8 8 4 2
17 13 14 11 10 9 9 8 8 7 7 6 4 5 4 5 3 2 2 2 3 3 4 5 6 6 7 9 7 8 6 5 4 5 5 3 3 4 4 8 9 7 3
15 12 10 8 6 5 6 6 6 6 6 6 5 4 3 3 2 4 3 1 2 4 5 5 5 8 10 9 7 7 8 5 5 4 4 2 3 4 8 7 5 8 7
12 12 10 10 9 7 7 6 7 7 6 6 5 4 1 1 4 6 2 2 4 5 7 7 6 6 7 11 13 12 9 7 6 3 3 3 6 4 5 6 6 6 5
8 8 8 9 8 7 8 7 7 6 6 6 4 2 1 1 4 2 4 1 4 5 6 6 5 5 7 8 11 11 10 7 8 4 4 5 5 7 6 6 7 5 4
9 9 9 11 10 7 8 8 5 4 4 3 2 2 1 4 5 5 6 4 4 7 7 8 5 3 4 6 9 10 8 7 7 6 4 5 6 8 5 5 6 8 7
13 12 11 11 12 8 8 8 4 4 2 1 2 1 0 4 6 5 6 4 5 7 6 6 3 3 6 3 7 10 11 7 6 8 8 9 9 8 7 5 4 4 5
12 12 10 13 9 8 6 5 3 2 1 3 4 3 5 3 5 5 3 2 5 6 5 4 4 7 10 7 5 6 10 9 9 12 11 10 9 10 12 5 5 5 4
12 10 13 10 10 5 3 3 1 3 4 3 4 5 6 5 5 7 8 5 5 6 6 5 4 8 6 5 7 7 9 7 9 8 9 9 9 9 6 6 5 7 6
11 10 10 6 8 5 6 4 2 3 5 5 5 6 5 5 7 6 8 7 8 6 7 6 5 7 8 9 7 10 13 11 7 8 8 10 8 8 7 6 6 7 7
10 9 8 9 6 5 4 6 4 4 3 5 5 5 6 5 4 8 11 10 10 7 7 7 8 9 11 9 13 14 12 7 8 8 9 9 8 8 10 8 8 8 9
9 7 6 6 6 4 3 3 2 3 4 5 6 7 7 7 6 6 6 6 8 8 9 6 8 10 12 13 12 10 8 7 8 8 9 8 8 8 7 5 5 6 4
7 6 6 6 3 3 4 4 5 5 7 7 7 7 6 6 5 10 8 7 6 7 10 7 7 7 8 8 8 7 7 7 8 7 7 6 8 9 7 6 5 4 4
8 5 4 3 2 4 4 4 5 7 8 9 11 9 7 9 11 13 13 14 14 12 7 7 7 8 8 8 8 7 7 9 7 7 6 6 7 8 7 5 4 4 5
5 5 5 6 5 6 6 6 6 5 8 9 10 12 13 12 12 13 16 15 13 10 5 6 6 7 5 6 6 7 7 7 7 6 6 6 7 8 6 6 4 4 5
5 8 3 4 4 5 4 6 5 6 7 6 6 9 12 14 12 13 14 11 6 4 4 5 6 5 6 5 6 7 6 6 6 6 6 6 6 8 7 7 4 4 4
5 5 5 4 4 6 5 5 6 6 7 7 7 6 7 12 12 12 10 5 6 6 6 5 5 5 5 7 5 6 6 6 6 5 5 6 6 7 7 6 4 4 4
5 8 5 4 5 6 7 7 7 7 8 7 8 7 8 8 7 7 6 6 6 6 7 7 6 6 7 7 7 5 7 6 6 6 5 5 5 5 6 6 5 4 3
2 4 5 5 6 7 7 8 8 7 7 7 8 8 10 8 7 7 6 7 6 6 8 8 8 7 7 8 8 6 6 6 5 5 5 5 5 5 5 5 5 4 3
5 6 7 7 7 7 7 7 7 7 8 8 8 9 11 6 7 7 7 7 7 7 7 8 7 7 8 7 7 6 6 7 6 6 5 5 5 5 5 5 4 4 3
4 4 5 5 5 7 7 7 7 7 8 8 9 9 9 8 8 8 8 8 7 7 6 7 9 8 7 7 8 8 7 6 6 4 3 3 4 5 6 5 5 4 4
5 5 6 6 6 7 7 8 8 9 9 9 9 9 9 9 9 10 8 8 8 8 7 7 9 11 10 8 7 7 8 8 7 6 8 6 5 5 7 6 5 5 4
6 6 7 7 7 7 8 8 9 9 9 9 9 9 10 10 10 9 8 8 9 9 9 9 8 11 12 12 10 11 10 8 9 4 4 6 7 8 6 4 4 3 3
7 7 7 7 7 7 8 9 9 9 10 10 10 10 11 10 10 10 9 10 9 10 13 8 10 14 13 10 11 10 8 7 7 7 5 6 6 5 7 6 5 3 4
Wind_Direction
121 153 141 139 130 137 143 143 135 128 128 119 118 107 94 79 59 72 95 95 97 89 61 32 360 334 337 332 333 328 310 296 279 290 300 319 320 333 340 344 326 335 308
146 145 137 135 140 145 146 153 146 139 126 122 106 93 87 70 49 79 93 94 87 71 44 19 348 337 325 313 313 314 298 295 285 301 309 317 315 325 333 327 334 332 281
148 154 164 146 163 160 166 157 142 132 129 124 118 114 104 102 100 69 61 79 81 64 19 3 329 329 318 312 308 303 300 301 287 281 300 299 291 332 339 348 346 345 337
168 188 165 180 174 172 169 152 142 147 138 126 127 121 113 122 93 98 97 51 20 1 336 328 319 312 301 304 306 304 300 304 296 305 299 298 298 337 351 0 346 352 311
173 172 180 174 145 149 132 134 127 119 118 118 120 95 84 136 153 151 129 137 291 315 308 299 303 308 336 341 324 321 310 293 296 307 309 298 325 1 12 343 333 332 310
176 176 156 143 142 149 126 116 123 126 118 116 108 112 130 161 154 146 159 281 303 300 298 302 303 311 338 344 344 344 335 297 290 295 302 324 17 38 0 344 344 1 337
147 132 138 126 132 125 124 130 120 109 120 116 97 112 173 238 192 282 310 271 291 282 277 274 286 328 340 341 337 347 342 14 39 36 31 16 340 2 342 340 340 328 297
104 108 111 110 99 93 99 93 94 85 79 101 130 233 352 281 269 265 265 260 277 273 265 258 247 267 284 327 336 332 337 336 18 6 12 336 327 322 321 309 306 303 294
79 78 67 80 80 64 80 51 0 74 58 298 257 327 299 295 294 282 288 293 287 281 274 297 250 255 249 266 319 313 314 322 331 338 324 305 301 293 303 322 295 328 312
65 76 68 88 46 67 56 50 320 20 101 301 313 298 292 297 305 319 303 281 290 281 271 273 270 252 272 243 243 272 294 309 325 328 330 325 318 307 296 264 268 254 262
75 63 68 40 78 15 65 123 344 353 326 318 322 295 283 278 285 294 310 308 301 303 296 270 242 227 258 273 245 267 270 292 295 301 309 310 305 298 287 278 246 241 235
80 75 62 33 41 37 340 20 347 6 336 308 288 297 293 303 291 296 302 310 303 296 284 274 270 229 252 257 251 255 266 274 277 289 297 300 298 295 293 294 284 256 249
83 70 64 65 37 25 8 4 339 337 323 324 318 311 304 302 307 307 310 303 297 300 293 279 258 254 257 263 257 250 250 257 267 275 288 291 293 289 293 288 284 270 260
52 76 68 74 52 1 27 324 305 324 327 338 334 330 321 322 321 343 346 337 312 302 312 305 296 278 267 266 269 261 250 249 254 266 274 285 289 287 282 274 286 296 284
74 36 47 60 18 5 18 330 353 351 356 352 345 337 330 339 345 325 308 292 297 296 300 280 272 265 261 258 252 246 250 248 251 255 255 264 281 286 284 278 270 281 269
56 34 17 34 359 357 341 338 343 329 327 332 331 329 327 301 308 302 299 308 300 291 288 283 279 272 267 264 257 251 245 254 251 254 260 253 270 272 288 285 267 260 270
43 19 5 359 349 344 346 337 324 326 309 297 299 291 285 285 289 309 317 306 295 301 274 283 284 275 258 268 271 262 254 253 256 249 253 257 260 262 274 279 271 269 268
33 19 358 350 337 319 318 323 324 329 329 323 276 268 282 283 297 303 295 303 310 291 291 296 290 295 287 270 277 266 262 261 254 247 245 247 250 258 263 264 274 295 275
14 6 354 341 341 342 328 335 328 318 309 305 318 306 315 298 300 288 283 294 312 313 304 291 296 284 289 298 271 280 261 261 256 250 239 241 247 255 255 253 262 284 299
6 356 8 352 356 349 349 339 330 319 318 320 315 312 314 310 320 325 315 310 307 307 309 296 300 287 293 291 291 266 286 250 257 243 245 246 245 253 261 260 259 264 278
338 358 359 3 1 347 346 339 319 314 314 307 299 304 297 305 310 317 316 318 310 301 306 303 298 289 286 287 287 283 259 280 244 254 252 247 237 246 246 252 263 259 258
359 -0 4 355 340 335 325 313 312 316 304 304 307 316 316 308 315 316 316 313 305 298 295 293 291 286 289 285 287 293 257 261 270 234 242 228 221 251 261 259 261 261 261
4 2 347 332 323 312 318 317 319 318 312 310 313 320 327 329 323 318 314 309 303 298 295 288 288 286 279 273 276 271 287 260 249 270 225 222 259 235 245 255 248 258 249
0 355 349 341 336 333 329 325 321 318 319 319 321 322 326 325 319 317 313 307 305 300 292 286 284 282 283 275 266 264 259 271 252 247 240 249 251 250 243 245 248 242 236
358 354 352 345 337 332 328 331 327 327 326 324 322 324 321 320 317 314 311 309 307 304 300 293 284 284 279 274 266 257 255 264 263 241 238 246 240 264 250 262 232 231 246
356 353 348 342 339 337 334 331 328 326 325 324 322 322 320 318 315 313 313 310 307 306 303 291 284 285 283 281 265 250 238 236 263 220 228 229 239 250 245 255 234 242 257